Terminal Aerodrome Forecast
Issued by NWS

Home | Current Version | Previous Version | Graphics & Text | Print | Product List | Glossary On
Versions: 1 2 3 4 5 6 7 8 9 10 11 12 13 14 15 16 17 18 19
000
FTUS43 KGRB 211851 AAA
TAFCWA
TAF AMD
KCWA 211851Z 2119/2218 16007KT P6SM SCT025 SCT090
      TEMPO 2119/2121 3SM -TSRA BKN025CB
     FM220000 21005KT P6SM SHRA SCT035 OVC080
      TEMPO 2200/2204 1SM +TSRA BKN018CB
     FM220400 28006KT P6SM -SHRA SCT018 OVC035
     FM220800 30007KT P6SM BKN020
     FM221300 31011G17KT P6SM FEW022=

USA.gov is the U.S. government's official web portal to all federal, state and local government web resources and services.